This demonstration page uses our WeatherBlox Daily Observations layout. Learn more.

Left ArrowRight Arrow

Hourly Observations for April 14, 2019

Temp ( °F °C ) Dew Point ( °F °C ) Humidity (%) Winds ( mph kmh ) Pressure ( in mb ) Visibility ( mi km ) Precip ( " mm )
12:53 am 00:53 Clear 43 6.1 38 3.3 82 82 NNE 6 9 30.04 1017 10 16 0.00 0.00
1:53 am 01:53 Clear 42 5.6 37 2.8 82 82 Calm 30.04 1017 10 16 0.00 0.00
2:53 am 02:53 Clear 40 4.4 38 3.3 93 93 SSW 5 7 30.05 1018 10 16 0.00 0.00
3:53 am 03:53 Clear 40 4.4 37 2.8 89 89 SSW 7 11 30.04 1017 10 16 0.00 0.00
4:53 am 04:53 Clear 39 3.9 37 2.8 93 93 SW 5 7 30.03 1017 8 13 0.00 0.00
5:53 am 05:53 Clear with Mist and Fog 39 3.9 37 2.8 93 93 WSW 6 9 30.04 1017 6 10 0.00 0.00
6:53 am 06:53 Clear with Mist and Fog 38 3.3 36 2.2 93 93 SW 5 7 30.04 1017 4 6 0.00 0.00
7:53 am 07:53 Sunny with Mist and Fog 39 3.9 37 2.8 93 93 Calm 30.04 1017 3 5 0.00 0.00
8:53 am 08:53 Sunny with Mist and Fog 44 6.7 40 4.4 85 85 S 8 13 30.04 1017 6 10 0.00 0.00
9:53 am 09:53 Sunny 49 9.4 41 5 74 74 S 9 15 30.02 1017 10 16 0.00 0.00
10:53 am 10:53 Sunny 53 11.7 40 4.4 61 61 S 9 15 30.01 1016 10 16 0.00 0.00
11:53 am 11:53 Sunny 57 13.9 41 5 55 55 S 7 11 30.00 1016 10 16 0.00 0.00
12:53 pm 12:53 Sunny 62 16.7 42 5.6 48 48 SSW 9 15 29.98 1015 10 16 0.00 0.00
1:53 pm 13:53 Sunny 65 18.3 41 5 42 42 S 7 11 29.94 1014 10 16 0.00 0.00
2:53 pm 14:53 Sunny 69 20.6 41 5 36 36 VRB 5 7 29.90 1012 10 16 0.00 0.00
3:53 pm 15:53 Sunny 73 22.8 41 5 32 32 S 10 17 29.86 1011 10 16 0.00 0.00
4:53 pm 16:53 Sunny 77 25 39 3.9 26 26 SSE 10 17 29.81 1010 10 16 0.00 0.00
5:53 pm 17:53 Sunny 79 26.1 26 -3.3 14 14 WSW 18 30 29.78 1009 10 16 0.00 0.00
6:53 pm 18:53 Sunny 79 26.1 24 -4.4 13 13 WSW 17 28 29.78 1009 10 16 0.00 0.00
7:53 pm 19:53 Sunny 75 23.9 30 -1.1 19 19 WSW 8 13 29.79 1009 10 16 0.00 0.00
8:53 pm 20:53 Clear 66 18.9 39 3.9 37 37 SSW 8 13 29.81 1009 10 16 0.00 0.00
9:53 pm 21:53 Clear 63 17.2 39 3.9 41 41 SSW 9 15 29.83 1010 10 16 0.00 0.00
10:53 pm 22:53 Clear 60 15.6 44 6.7 56 56 SE 10 17 29.84 1011 10 16 0.00 0.00
11:53 pm 23:53 Clear 58 14.4 44 6.7 60 60 SSE 8 13 29.84 1010 10 16 0.00 0.00

Powered by AerisWeather